Change the Weather History Date:

Tuesday, December 24, 2013

  Actual Average Record
Temperature  
Mean Temperature 12 °F 29 °F  
Max Temperature 19 °F 36 °F 50 °F (2008)
Min Temperature 5 °F 23 °F -5 °F (2004)
Degree Days  
Heating Degree Days 53 36  
Month to date heating degree days 835 778  
Since 1 July heating degree days 2013 1802  
Cooling Degree Days 0 0  
Month to date cooling degree days 0 0  
Year to date cooling degree days 1006 1058  
Moisture  
Dew Point 4 °F    
Average Humidity 72    
Maximum Humidity 83    
Minimum Humidity 61    
Precipitation  
Precipitation T in 0.14 in 0.49 in (2008)
Month to date precipitation 3.50 2.17  
Year to date precipitation 41.68 39.88  
Sea Level Pressure  
Sea Level Pressure 30.51 in    
Wind  
Wind Speed 7 mph (WNW)    
Max Wind Speed 20 mph    
Max Gust Speed 22 mph    
Visibility 7 miles    
Events Snow    
T = Trace of Precipitation, MM = Missing Value Source: NWS Daily Summary

Daily Weather History Graph

Daily Weather History Graph

Search for Another Location

Airport or City:

Trip Planner

Search our weather history database for the weather conditions in past years. The results will help you decide how hot, cold, wet, or windy it might be!

Date:

Astronomy

Dec. 24, 2013 Rise Set
Actual Time 8:04 AM EST 5:25 PM EST
Civil Twilight 7:33 AM EST 5:56 PM EST
Nautical Twilight 6:59 AM EST 6:30 PM EST
Astronomical Twilight 6:27 AM EST 7:02 PM EST
Moon No Moon Rise 11:58 AM EST (12/24)
Length of Visible Light 10h 22m
Length of Day
9h 21m
Waning Gibbous, 59% of the Moon is Illuminated
Dec 24
Waning Gibbous
Dec 25
Last Quarter
Jan 1
New
Jan 7
First Quarter
Jan 15
Full

Hourly Weather History & Observations

Time (EST) Temp. Windchill Dew Point Humidity Pressure Visibility Wind Dir Wind Speed Gust Speed Precip Events Conditions
12:53 AM 14.0 °F -0.8 °F 6.1 °F 71% 30.47 in 10.0 mi WNW 13.8 mph - 0.00 in   Overcast
1:18 AM 12.9 °F -2.2 °F 7.0 °F 77% 30.43 in 2.0 mi NW 13.8 mph - 0.00 in Snow Light Snow
1:28 AM 12.9 °F -1.6 °F 7.0 °F 77% 30.42 in 4.0 mi NW 12.7 mph - 0.00 in Snow Light Snow
1:53 AM 12.0 °F -3.4 °F 5.0 °F 73% 30.47 in 7.0 mi NW 13.8 mph - 0.00 in Snow Light Snow
2:43 AM 12.0 °F -1.3 °F 7.0 °F 80% 30.44 in 2.0 mi WNW 10.4 mph - 0.00 in Snow Light Snow
2:50 AM 12.2 °F -3.1 °F 6.8 °F 79% 30.44 in 1.5 mi WNW 13.8 mph - 0.00 in Snow Light Snow
2:53 AM 12.0 °F -3.4 °F 7.0 °F 80% 30.48 in 1.2 mi NW 13.8 mph - 0.00 in Snow Light Snow
3:07 AM 10.9 °F -3.4 °F 6.1 °F 81% 30.44 in 2.5 mi NW 11.5 mph - 0.00 in Snow Light Snow
3:14 AM 10.9 °F -3.4 °F 6.1 °F 81% 30.44 in 3.0 mi NW 11.5 mph - 0.00 in Snow Light Snow
3:41 AM 10.9 °F -0.8 °F 6.1 °F 81% 30.45 in 1.8 mi WNW 8.1 mph - 0.00 in Snow Light Snow
3:53 AM 10.9 °F -2.6 °F 6.1 °F 81% 30.49 in 2.0 mi West 10.4 mph - 0.00 in Snow Light Snow
4:02 AM 10.9 °F -1.8 °F 3.9 °F 73% 30.45 in 9.0 mi West 9.2 mph - 0.00 in   Overcast
4:40 AM 9.0 °F -7.3 °F 3.9 °F 80% 30.45 in 2.5 mi NW 13.8 mph - 0.00 in Snow Light Snow
4:43 AM 9.0 °F -5.9 °F 3.9 °F 80% 30.45 in 3.0 mi NW 11.5 mph - 0.00 in Snow Light Snow
4:50 AM 8.6 °F -6.3 °F 3.2 °F 79% 30.45 in 6.0 mi NW 11.5 mph - 0.00 in   Haze
4:53 AM 9.0 °F -5.1 °F 3.9 °F 80% 30.50 in 7.0 mi WNW 10.4 mph - 0.00 in   Overcast
5:49 AM 6.8 °F -9.3 °F 1.4 °F 79% 30.47 in 10.0 mi WNW 12.7 mph - N/A   Scattered Clouds
5:53 AM 7.0 °F -8.3 °F 1.0 °F 77% 30.52 in 10.0 mi WNW 11.5 mph - N/A   Partly Cloudy
6:17 AM 6.1 °F -10.2 °F 1.0 °F 80% 30.49 in 6.0 mi NW 12.7 mph - N/A   Haze
6:53 AM 6.1 °F -10.9 °F -0.0 °F 76% 30.55 in 7.0 mi West 13.8 mph - N/A   Overcast
7:53 AM 5.0 °F -6.9 °F -0.0 °F 80% 30.56 in 8.0 mi West 6.9 mph - N/A   Mostly Cloudy
7:56 AM 5.0 °F -8.1 °F -0.0 °F 80% 30.51 in 9.0 mi West 8.1 mph - N/A   Scattered Clouds
8:53 AM 5.0 °F -10.0 °F -0.9 °F 76% 30.58 in 10.0 mi West 10.4 mph - N/A   Scattered Clouds
9:02 AM 6.1 °F -9.5 °F -0.9 °F 73% 30.53 in 10.0 mi WNW 11.5 mph - N/A   Mostly Cloudy
9:48 AM 6.8 °F -5.9 °F -0.4 °F 72% 30.55 in 2.5 mi West 8.1 mph - N/A   Haze
9:51 AM 6.8 °F -3.5 °F -0.4 °F 72% 30.55 in 3.0 mi WSW 5.8 mph - N/A   Haze
9:53 AM 6.1 °F -2.8 °F -0.0 °F 76% 30.60 in 4.0 mi Variable 4.6 mph - N/A   Haze
10:32 AM 8.1 °F -3.2 °F 1.0 °F 73% 30.55 in 10.0 mi WNW 6.9 mph - N/A   Partly Cloudy
10:53 AM 9.0 °F -4.2 °F 1.9 °F 73% 30.61 in 10.0 mi WNW 9.2 mph - N/A   Clear
11:53 AM 10.0 °F 0.4 °F 1.9 °F 70% 30.60 in 10.0 mi WNW 5.8 mph - N/A   Partly Cloudy
12:53 PM 14.0 °F 5.1 °F 5.0 °F 67% 30.60 in 10.0 mi WNW 5.8 mph - N/A   Clear
1:53 PM 16.0 °F 10.4 °F 6.1 °F 65% 30.58 in 10.0 mi WNW 3.5 mph - N/A   Clear
2:53 PM 17.1 °F - 7.0 °F 65% 30.56 in 10.0 mi Calm Calm - N/A   Clear
3:53 PM 18.0 °F - 7.0 °F 62% 30.56 in 10.0 mi Calm Calm - N/A   Clear
4:53 PM 18.0 °F 11.1 °F 6.1 °F 60% 30.56 in 10.0 mi South 4.6 mph - N/A   Clear
5:53 PM 17.1 °F 11.7 °F 7.0 °F 65% 30.56 in 10.0 mi South 3.5 mph - N/A   Clear
6:53 PM 16.0 °F 10.4 °F 7.0 °F 68% 30.54 in 10.0 mi SSE 3.5 mph - N/A   Clear
7:53 PM 16.0 °F 10.4 °F 7.0 °F 68% 30.55 in 10.0 mi SSE 3.5 mph - N/A   Clear
8:53 PM 16.0 °F 8.8 °F 8.1 °F 71% 30.55 in 10.0 mi SSE 4.6 mph - N/A   Clear
9:53 PM 16.0 °F 7.4 °F 9.0 °F 74% 30.53 in 10.0 mi SSE 5.8 mph - N/A   Clear
10:53 PM 17.1 °F 8.7 °F 10.0 °F 74% 30.50 in 10.0 mi Variable 5.8 mph - N/A   Partly Cloudy
11:53 PM 18.0 °F 6.9 °F 10.0 °F 71% 30.46 in 10.0 mi SSE 9.2 mph - N/A   Overcast